Flag for Canada Weather past 2 weeks in Colchester County, Nova Scotia, Canada

Now
52 °F

High level clouds.


Feels Like: 51 °F
Forecast: 46 / 75 °F
Wind: 5 mph from West

Location: Halifax International Airport

Current Time: Sep 2, 2015 at 4:35:58 AM

Latest Report: Sep 2, 2015 at 4:00 AM


Visibility: 15 mi

Pressure: 30.00 "Hg

Humidity: 88%

Dew point: 48 °F

Location of Colchester CountyLocation

Historic Weather in Colchester County — Graph

°F

Colchester County temperature yesterday

Maximum temperature yesterday: 68 °F (at 12:00 AM)
Minimum temperature yesterday: 52 °F (at 11:00 PM)
Average temperature yesterday: 62 °F

Past Weeks' High & Low Weather Summary

 TemperatureHumidityPressure
High84 °F (Aug 19, 2:00 PM)100% (Aug 18, 3:00 AM)30.26 "Hg (Aug 18, 3:00 AM)
Low52 °F (Sep 1, 11:00 PM)42% (Aug 29, 4:00 PM)29.70 "Hg (Aug 31, 8:00 PM)
Average69 °F85%30.03 "Hg
* Reported Aug 18 3:00 AM — Sep 2 3:00 AM, Colchester County, Weather by CustomWeather, © 2015

Note: Actual official high and low records may vary slightly from our data, if they occured in-between our weather recording intervals... More about our weather records

Advertising

Colchester County weather history for previous 24 hours

 ConditionsComfort  
Time TempWeatherWind HumidityBarometerVisibility
3:00 AM
Wed, Sep 2
52 °FHigh level clouds.3 mph94%30.01 "Hg15 mi
2:00 AM52 °FPassing clouds.5 mph88%30.02 "Hg15 mi
1:00 AM52 °FPassing clouds.5 mph88%30.01 "Hg15 mi
12:00 AM52 °FPassing clouds.6 mph88%30.02 "Hg15 mi
11:00 PM
Tue, Sep 1
52 °FPassing clouds.8 mph88%30.02 "Hg15 mi
10:00 PM54 °FPassing clouds.8 mph88%30.02 "Hg15 mi
8:00 PM57 °FPartly sunny.10 mph77%29.99 "Hg15 mi
7:00 PM61 °FPartly sunny.12 mph72%29.98 "Hg15 mi
6:00 PM64 °FPartly sunny.13 mph64%29.96 "Hg15 mi
5:00 PM64 °FPartly sunny.20 mph64%29.95 "Hg15 mi
4:00 PM64 °FPartly sunny.17 mph64%29.93 "Hg15 mi
3:00 PM66 °FPassing clouds.20 mph60%29.92 "Hg15 mi
2:00 PM64 °FPartly sunny.17 mph64%29.93 "Hg15 mi
1:00 PM64 °FPartly sunny.23 mph60%29.91 "Hg15 mi
12:00 PM63 °FPartly sunny.23 mph68%29.91 "Hg15 mi
11:00 AM63 °FPartly sunny.18 mph68%29.89 "Hg15 mi
10:00 AM61 °FPartly sunny.18 mph72%29.87 "Hg15 mi
9:00 AM61 °FOvercast.20 mph72%29.87 "Hg15 mi
8:01 AM61 °FOvercast.12 mph77%29.85 "Hg15 mi
7:00 AM61 °FOvercast.17 mph77%29.82 "Hg15 mi
6:00 AM63 °FPassing clouds.15 mph77%29.79 "Hg15 mi
5:00 AM64 °FPassing clouds.17 mph73%29.76 "Hg15 mi
4:00 AM63 °FPassing clouds.15 mph77%29.74 "Hg15 mi
Weather by CustomWeather, © 2015

See weather overviewHow to use our weather pages